{"data":{"norad_id":64213,"intl_designator":"2025-117L","name":"STARLINK-34332","alt_names":[],"object_type":"PAYLOAD","status":"ACTIVE","operator":null,"country":"US","launch_date":"2025-05-31","launch_site_code":"AFWTR","launch_vehicle":null,"mission":null,"orbit_class":"UNKNOWN","rcs_meters":null,"size_class":null,"mass_kg":null,"dimensions":null,"purposes":["comms"],"wikipedia_slug":null,"has_3d_model":false,"image_url":null,"decayed_at":null,"tle_current":{"epoch":"2026-09-20T11:12:47.541024Z","epoch_age_seconds":143291,"freshness":"FRESH","line1":"1 64213U 25117L   26263.46721691  .00023168  00000+0  69493-3 0  9990","line2":"2 64213  53.1588 211.5750 0001030  74.2238 285.8878 15.34390456 74422","mean_motion":15.34390456,"eccentricity":0.000103,"inclination_deg":53.1588,"raan_deg":211.575,"arg_perigee_deg":74.2238,"mean_anomaly_deg":285.8878,"bstar":0.00069493,"rev_number":7442,"period_min":93.848341819978,"perigee_km":462.02699766691,"apogee_km":463.43621659998,"semimajor_km":6840.8686071334,"source":"CELESTRAK","updated_at":"2026-09-21T09:00:35.272046Z"}}}